2023/09/02 00:00:00, 0.2,22.6
2023/09/02 00:10:00, 0.2,22.8
2023/09/02 00:20:00, 0.2,22.8
2023/09/02 00:30:00, 0.2,22.8
2023/09/02 00:40:00, 0.2,23.0
2023/09/02 00:50:00, 0.2,22.9
2023/09/02 01:00:00, 0.1,22.8
2023/09/02 01:10:00, 0.2,22.6
2023/09/02 01:20:00, 0.2,22.5
2023/09/02 01:30:00, 0.2,22.3
2023/09/02 01:40:00, 0.2,22.3
2023/09/02 01:50:00, 0.2,22.2
2023/09/02 02:00:00, 0.2,22.3
2023/09/02 02:10:00, 0.2,22.3
2023/09/02 02:20:00, 0.2,22.2
2023/09/02 02:30:00, 0.2,22.1
2023/09/02 02:40:00, 0.2,22.2
2023/09/02 02:50:00, 0.2,22.1
2023/09/02 03:00:00, 0.2,21.8
2023/09/02 03:10:00, 0.2,21.9
2023/09/02 03:20:00, 0.2,21.9
2023/09/02 03:30:00, 0.2,21.8
2023/09/02 03:40:00, 0.2,21.7
2023/09/02 03:50:00, 0.2,21.9
2023/09/02 04:00:00, 0.2,22.0
2023/09/02 04:10:00, 0.2,21.9
2023/09/02 04:20:00, 0.2,21.8
2023/09/02 04:30:00, 0.2,21.6
2023/09/02 04:40:00, 0.2,21.8
2023/09/02 04:50:00, 0.2,21.9
2023/09/02 05:00:00, 0.2,21.6
2023/09/02 05:10:00, 0.2,21.5
2023/09/02 05:20:00, 0.3,22.0
2023/09/02 05:30:00, 0.3,21.6
2023/09/02 05:40:00, 0.3,21.8
2023/09/02 05:50:00, 0.2,21.5
2023/09/02 06:00:00, 0.2,21.5
2023/09/02 06:10:00, 0.3,21.6
2023/09/02 06:20:00, 0.3,21.7
2023/09/02 06:30:00, 0.2,21.6
2023/09/02 06:40:00, 0.2,21.7
2023/09/02 06:50:00, 0.2,22.0
2023/09/02 07:00:00, 0.2,22.1
2023/09/02 07:10:00, 0.2,22.3
2023/09/02 07:20:00, 0.2,22.6
2023/09/02 07:30:00, 0.2,22.9
2023/09/02 07:40:00, 0.2,23.1
2023/09/02 07:50:00, 0.2,23.5
2023/09/02 08:00:00, 0.3,23.9
2023/09/02 08:10:00, 0.3,24.0
2023/09/02 08:20:00, 0.2,24.6
2023/09/02 08:30:00, 0.2,25.1
2023/09/02 08:40:00, 0.2,25.4
2023/09/02 08:50:00, 0.2,26.2
2023/09/02 09:00:00, 0.3,26.4
2023/09/02 09:10:00, 0.3,26.5
2023/09/02 09:20:00, 0.3,26.4
2023/09/02 09:30:00, 0.2,26.6
2023/09/02 09:40:00, 0.3,27.0
2023/09/02 09:50:00, 0.2,26.7
2023/09/02 10:00:00, 0.2,26.7
2023/09/02 10:10:00, 0.2,27.2
2023/09/02 10:20:00, 0.2,26.9
2023/09/02 10:30:00, 0.2,27.1
2023/09/02 10:40:00, 0.2,26.9
2023/09/02 10:50:00, 0.2,27.2
2023/09/02 11:00:00, 0.2,27.6
2023/09/02 11:10:00, 0.2,27.6
2023/09/02 11:20:00, 0.2,27.6
2023/09/02 11:30:00, 0.2,28.0
2023/09/02 11:40:00, 0.2,27.9
2023/09/02 11:50:00, 0.3,28.0
2023/09/02 12:00:00, 0.2,28.4
2023/09/02 12:10:00, 0.2,28.2
2023/09/02 12:20:00, 0.2,28.2
2023/09/02 12:30:00, 0.1,28.9
2023/09/02 12:40:00, 0.1,28.7
2023/09/02 12:50:00, 0.2,28.5
2023/09/02 13:00:00, 0.2,29.2
2023/09/02 13:10:00, 0.2,29.3
2023/09/02 13:20:00, 0.2,28.9
2023/09/02 13:30:00, 0.2,29.5
2023/09/02 13:40:00, 0.2,29.7
2023/09/02 13:50:00, 0.1,28.7
2023/09/02 14:00:00, 0.1,28.1
2023/09/02 14:10:00, 0.2,28.1
2023/09/02 14:20:00, 0.2,27.9
2023/09/02 14:30:00, 0.2,27.9
2023/09/02 14:40:00, 0.2,27.7
2023/09/02 14:50:00, 0.2,27.9
2023/09/02 15:00:00, 0.2,28.0
2023/09/02 15:10:00, 0.2,28.4
2023/09/02 15:20:00, 0.2,28.8
2023/09/02 15:30:00, 0.2,29.0
2023/09/02 15:40:00, 0.2,29.1
2023/09/02 15:50:00, 0.1,29.8
2023/09/02 16:00:00, 0.2,29.7
2023/09/02 16:10:00, 0.1,29.5
2023/09/02 16:20:00, 0.1,31.3
2023/09/02 16:30:00, 0.2,31.9
2023/09/02 16:40:00, 0.3,30.8
2023/09/02 16:50:00, 0.2,29.5
2023/09/02 17:00:00, 0.1,28.6
2023/09/02 17:10:00, 0.1,27.5
2023/09/02 17:20:00, 0.1,26.3
2023/09/02 17:30:00, 0.2,26.0
2023/09/02 17:40:00, 0.2,26.0
2023/09/02 17:50:00, 0.2,25.9
2023/09/02 18:00:00, 0.2,26.0
2023/09/02 18:10:00, 0.2,25.8
2023/09/02 18:20:00, 0.2,25.6
2023/09/02 18:30:00, 0.2,25.1
2023/09/02 18:40:00, 0.2,24.7
2023/09/02 18:50:00, 0.2,24.2
2023/09/02 19:00:00, 0.2,24.0
2023/09/02 19:10:00, 0.3,23.7
2023/09/02 19:20:00, 0.3,23.4
2023/09/02 19:30:00, 0.2,23.3
2023/09/02 19:40:00, 0.3,23.3
2023/09/02 19:50:00, 0.2,23.0
2023/09/02 20:00:00, 0.2,23.0
2023/09/02 20:10:00, 0.2,22.9
2023/09/02 20:20:00, 0.2,23.0
2023/09/02 20:30:00, 0.2,22.7
2023/09/02 20:40:00, 0.2,22.3
2023/09/02 20:50:00, 0.2,22.3
2023/09/02 21:00:00, 0.2,22.3
2023/09/02 21:10:00, 0.2,22.1
2023/09/02 21:20:00, 0.1,22.2
2023/09/02 21:30:00, 0.2,22.0
2023/09/02 21:40:00, 0.2,21.9
2023/09/02 21:50:00, 0.2,21.9
2023/09/02 22:00:00, 0.1,21.6
2023/09/02 22:10:00, 0.1,21.7
2023/09/02 22:20:00, 0.1,21.6
2023/09/02 22:30:00, 0.1,21.6
2023/09/02 22:40:00, 0.1,21.5
2023/09/02 22:50:00, 0.1,21.6
2023/09/02 23:00:00, 0.1,21.5
2023/09/02 23:10:00, 0.2,21.5
2023/09/02 23:20:00, 0.2,21.5
2023/09/02 23:30:00, 0.2,21.6
2023/09/02 23:40:00, 0.2,21.6
2023/09/02 23:50:00, 0.2,21.7
